Windsor, CA

8:21 PM PDT on September 24, 2016 (GMT -0700)
Sonoma County

Weather History for KSTS - October, 2011

Change the Weather History Date:

Thursday, October 6, 2011

  Actual Average Record
Temperature  
Mean Temperature 57 °F 63 °F  
Max Temperature 68 °F 80 °F 94 °F (2002)
Min Temperature 46 °F 46 °F 38 °F (2009)
Degree Days  
Heating Degree Days 8    
Month to date heating degree days 32  
Since 1 July heating degree days 64  
Cooling Degree Days 0    
Month to date cooling degree days 1  
Year to date cooling degree days 322  
Growing Degree Days 6 (Base 50)    
Moisture  
Dew Point 47 °F    
Average Humidity 68    
Maximum Humidity 93    
Minimum Humidity 42    
Precipitation  
Precipitation 0.08 in 0.03 in 0.08 in (2011)
Month to date precipitation 1.75 0.15  
Year to date precipitation 24.22 22.68  
Since 1 July precipitation 1.78  
Sea Level Pressure  
Sea Level Pressure 29.92 in    
Wind  
Wind Speed 4 mph (North)    
Max Wind Speed 21 mph    
Max Gust Speed 25 mph    
Visibility 10 miles    
Events Rain    
T = Trace of Precipitation, MM = Missing Value Source: NWS Daily Summary

Daily Weather History Graph

Daily Weather History Graph

Search for Another Location

Airport or City:

Trip Planner

Search our weather history database for the weather conditions in past years. The results will help you decide how hot, cold, wet, or windy it might be!

Date:

Astronomy

Oct. 06, 2011 Rise Set
Actual Time 7:11 AM PDT 6:46 PM PDT
Civil Twilight 6:45 AM PDT 7:13 PM PDT
Nautical Twilight 6:14 AM PDT 7:43 PM PDT
Astronomical Twilight 5:43 AM PDT 8:14 PM PDT
Moon 3:59 PM PDT (10/6) 2:09 AM PDT (10/6)
Length of Visible Light 12h 28m
Length of Day
11h 35m
Waxing Gibbous, 76% of the Moon is Illuminated
Oct 6
Waxing Gibbous
Oct 11
Full
Oct 19
Last Quarter
Oct 26
New
Nov 2
First Quarter

Hourly Weather History & Observations

Time (PDT) Temp. Dew Point Humidity Pressure Visibility Wind Dir Wind Speed Gust Speed Precip Events Conditions
12:53 AM 46.0 °F 44.1 °F 93% 29.86 in 10.0 mi Calm Calm - N/A   Scattered Clouds
1:53 AM 48.0 °F 46.0 °F 93% 29.86 in 10.0 mi Calm Calm - N/A   Overcast
2:53 AM 48.0 °F 46.9 °F 96% 29.86 in 10.0 mi Calm Calm - N/A   Mostly Cloudy
3:53 AM 48.9 °F 46.9 °F 93% 29.85 in 10.0 mi Calm Calm - N/A   Overcast
4:53 AM 48.0 °F 46.0 °F 93% 29.85 in 10.0 mi Calm Calm - N/A   Mostly Cloudy
5:53 AM 48.9 °F 48.0 °F 97% 29.85 in 8.0 mi Calm Calm - 0.02 in Rain Light Rain
6:42 AM 50.0 °F 48.2 °F 94% 29.86 in 9.0 mi Variable 6.9 mph - 0.05 in Rain Light Rain
6:53 AM 51.1 °F 48.0 °F 89% 29.84 in 10.0 mi WNW 5.8 mph 16.1 mph 0.06 in   Overcast
6:56 AM 51.8 °F 48.2 °F 88% 29.86 in 4.0 mi NW 8.1 mph - 0.00 in Rain Light Rain
7:53 AM 48.9 °F 46.9 °F 93% 29.86 in 10.0 mi Calm Calm - 0.00 in   Mostly Cloudy
8:53 AM 52.0 °F 48.9 °F 89% 29.87 in 10.0 mi Calm Calm - N/A   Mostly Cloudy
9:53 AM 54.0 °F 51.1 °F 90% 29.88 in 10.0 mi Calm Calm - 0.00 in   Overcast
10:20 AM 53.6 °F 51.8 °F 94% 29.91 in 10.0 mi Calm Calm - N/A   Overcast
11:53 AM 61.0 °F 51.1 °F 70% 29.90 in 10.0 mi Variable 3.5 mph - N/A   Mostly Cloudy
12:53 PM 64.0 °F 50.0 °F 60% 29.91 in 10.0 mi North 6.9 mph - N/A   Mostly Cloudy
2:53 PM 66.9 °F 45.0 °F 45% 29.93 in 10.0 mi NNE 18.4 mph - N/A   Mostly Cloudy
3:53 PM 66.9 °F 43.0 °F 42% 29.96 in 10.0 mi NNE 16.1 mph - N/A   Mostly Cloudy
4:53 PM 66.0 °F 42.1 °F 42% 29.96 in 10.0 mi NE 8.1 mph - N/A   Scattered Clouds
5:53 PM 64.9 °F 42.1 °F 43% 29.97 in 10.0 mi East 5.8 mph - N/A   Scattered Clouds
6:53 PM 60.1 °F 46.0 °F 60% 29.99 in 10.0 mi Calm Calm - N/A   Partly Cloudy
7:53 PM 54.0 °F 46.0 °F 75% 30.01 in 10.0 mi West 3.5 mph - N/A   Scattered Clouds
8:53 PM 53.1 °F 46.9 °F 80% 30.03 in 10.0 mi Calm Calm - N/A   Clear
9:53 PM 50.0 °F 46.0 °F 86% 30.05 in 10.0 mi Calm Calm - N/A   Clear
10:53 PM 48.0 °F 45.0 °F 89% 30.06 in 10.0 mi North 4.6 mph - N/A   Clear
11:53 PM 48.9 °F 46.9 °F 93% 30.06 in 10.0 mi Calm Calm - N/A   Clear